QPF
0.01 0.03 0.04 0.06 0.06 0.07 0.07 0.06 0.04 0.03 0.04 0.03 0.03 0.05 0.07 0.07 0.07 0.07 0.06 0.05 0.05 0.04 0.04 0.05 0.05 0.05 0.05 0.06 0.07 0.10 0.11 0.07 0.08 0.07 0.05 0.05 0.07 0.06 0.07 0.07 0.08 0.07 0.07
0.02 0.03 0.05 0.07 0.06 0.06 0.07 0.06 0.06 0.05 0.05 0.05 0.05 0.06 0.06 0.06 0.06 0.06 0.05 0.04 0.04 0.03 0.04 0.05 0.04 0.04 0.04 0.04 0.06 0.09 0.11 0.10 0.08 0.07 0.05 0.05 0.07 0.07 0.06 0.07 0.06 0.07 0.08
0.03 0.03 0.06 0.07 0.07 0.05 0.06 0.06 0.08 0.08 0.06 0.06 0.06 0.06 0.06 0.07 0.07 0.06 0.04 0.04 0.04 0.03 0.03 0.03 0.04 0.04 0.03 0.04 0.06 0.09 0.10 0.09 0.06 0.05 0.04 0.05 0.07 0.07 0.06 0.07 0.07 0.06 0.09
0.02 0.03 0.05 0.07 0.07 0.05 0.06 0.07 0.08 0.09 0.08 0.08 0.07 0.05 0.06 0.07 0.10 0.08 0.06 0.05 0.06 0.06 0.05 0.03 0.04 0.03 0.03 0.03 0.04 0.10 0.19 0.17 0.10 0.06 0.05 0.05 0.08 0.06 0.06 0.07 0.06 0.08 0.10
0.02 0.03 0.05 0.07 0.06 0.05 0.04 0.06 0.09 0.10 0.09 0.09 0.07 0.05 0.05 0.06 0.06 0.07 0.08 0.06 0.05 0.04 0.04 0.04 0.04 0.04 0.04 0.04 0.04 0.07 0.18 0.20 0.13 0.07 0.05 0.06 0.07 0.07 0.06 0.06 0.05 0.06 0.08
0.02 0.03 0.06 0.07 0.05 0.04 0.05 0.09 0.12 0.09 0.08 0.08 0.07 0.07 0.07 0.06 0.05 0.06 0.07 0.06 0.04 0.03 0.03 0.03 0.03 0.04 0.05 0.05 0.06 0.07 0.10 0.14 0.09 0.07 0.06 0.06 0.07 0.06 0.06 0.06 0.05 0.05 0.06
0.02 0.02 0.04 0.05 0.04 0.04 0.06 0.12 0.14 0.08 0.08 0.07 0.07 0.07 0.08 0.07 0.06 0.06 0.06 0.04 0.05 0.04 0.04 0.04 0.05 0.04 0.05 0.04 0.06 0.06 0.08 0.11 0.09 0.07 0.06 0.05 0.07 0.07 0.08 0.06 0.05 0.07 0.06
0.01 0.01 0.03 0.05 0.04 0.04 0.06 0.10 0.19 0.20 0.14 0.09 0.06 0.07 0.09 0.07 0.04 0.04 0.04 0.04 0.05 0.06 0.06 0.05 0.06 0.06 0.06 0.05 0.06 0.05 0.05 0.07 0.07 0.07 0.06 0.07 0.09 0.08 0.09 0.08 0.06 0.08 0.08
0.00 0.01 0.01 0.01 0.02 0.04 0.05 0.08 0.17 0.24 0.14 0.09 0.07 0.07 0.08 0.07 0.05 0.03 0.03 0.03 0.03 0.04 0.04 0.06 0.05 0.05 0.05 0.07 0.06 0.05 0.04 0.04 0.05 0.04 0.04 0.07 0.09 0.10 0.09 0.07 0.07 0.07 0.08
0.00 0.00 0.01 0.01 0.01 0.02 0.02 0.04 0.14 0.31 0.21 0.12 0.08 0.07 0.07 0.05 0.05 0.02 0.02 0.03 0.03 0.03 0.02 0.03 0.03 0.04 0.04 0.04 0.04 0.04 0.03 0.03 0.04 0.04 0.04 0.07 0.09 0.08 0.07 0.07 0.07 0.09 0.10
0.01 0.01 0.01 0.01 0.01 0.01 0.01 0.02 0.07 0.22 0.29 0.20 0.13 0.11 0.06 0.04 0.03 0.01 0.01 0.01 0.02 0.02 0.03 0.03 0.03 0.05 0.04 0.03 0.04 0.03 0.03 0.04 0.03 0.04 0.06 0.09 0.09 0.09 0.09 0.10 0.11 0.09 0.09
0.03 0.02 0.02 0.02 0.01 0.02 0.02 0.01 0.03 0.08 0.13 0.15 0.15 0.11 0.05 0.03 0.02 0.01 0.01 0.01 0.00 0.01 0.01 0.01 0.02 0.02 0.01 0.02 0.03 0.02 0.03 0.04 0.04 0.04 0.07 0.10 0.10 0.09 0.10 0.11 0.07 0.05 0.07
0.02 0.03 0.03 0.03 0.02 0.01 0.01 0.00 0.02 0.05 0.05 0.05 0.07 0.07 0.03 0.02 0.02 0.01 0.01 0.01 0.01 0.01 0.02 0.01 0.01 0.01 0.01 0.02 0.03 0.02 0.03 0.03 0.04 0.04 0.07 0.09 0.11 0.12 0.13 0.11 0.10 0.08 0.07
0.02 0.02 0.03 0.03 0.02 0.01 0.01 0.00 0.01 0.02 0.03 0.02 0.01 0.01 0.01 0.02 0.02 0.01 0.03 0.02 0.01 0.02 0.03 0.02 0.02 0.02 0.02 0.01 0.02 0.02 0.02 0.02 0.02 0.04 0.08 0.10 0.12 0.14 0.13 0.12 0.12 0.09 0.07
0.01 0.01 0.02 0.02 0.02 0.01 0.01 0.01 0.01 0.01 0.01 0.01 0.01 0.00 0.01 0.02 0.02 0.01 0.01 0.02 0.02 0.02 0.03 0.03 0.02 0.02 0.02 0.02 0.02 0.02 0.02 0.01 0.01 0.02 0.05 0.09 0.12 0.14 0.12 0.10 0.09 0.06 0.05
0.01 0.01 0.01 0.01 0.01 0.01 0.01 0.01 0.01 0.01 0.00 0.00 0.01 0.00 0.00 0.01 0.01 0.01 0.01 0.01 0.01 0.02 0.02 0.02 0.02 0.03 0.04 0.05 0.02 0.02 0.02 0.01 0.01 0.01 0.03 0.07 0.11 0.13 0.14 0.09 0.07 0.05 0.05
0.00 0.00 0.01 0.01 0.01 0.01 0.01 0.01 0.01 0.00 0.00 0.01 0.01 0.00 0.01 0.01 0.01 0.01 0.01 0.01 0.02 0.02 0.02 0.02 0.03 0.03 0.03 0.04 0.02 0.01 0.01 0.01 0.02 0.02 0.04 0.07 0.10 0.11 0.10 0.09 0.06 0.05 0.05
0.00 0.00 0.00 0.01 0.01 0.02 0.02 0.02 0.01 0.01 0.01 0.01 0.01 0.01 0.01 0.01 0.00 0.00 0.01 0.01 0.02 0.02 0.02 0.03 0.03 0.03 0.03 0.03 0.03 0.02 0.02 0.02 0.02 0.02 0.02 0.06 0.08 0.08 0.07 0.06 0.06 0.05 0.05
0.00 0.01 0.00 0.00 0.00 0.01 0.02 0.02 0.01 0.01 0.01 0.02 0.01 0.01 0.01 0.01 0.01 0.01 0.01 0.01 0.01 0.02 0.02 0.02 0.02 0.03 0.04 0.04 0.03 0.02 0.03 0.03 0.02 0.01 0.02 0.04 0.08 0.07 0.05 0.04 0.04 0.06 0.05
0.01 0.01 0.01 0.00 0.00 0.01 0.01 0.02 0.01 0.01 0.00 0.01 0.01 0.01 0.01 0.01 0.02 0.02 0.01 0.02 0.02 0.02 0.02 0.02 0.02 0.03 0.04 0.04 0.03 0.02 0.02 0.03 0.02 0.02 0.02 0.02 0.03 0.04 0.04 0.04 0.05 0.05 0.05
0.01 0.01 0.00 0.00 0.00 0.00 0.00 0.00 0.01 0.01 0.01 0.00 0.01 0.00 0.01 0.01 0.01 0.02 0.01 0.02 0.02 0.03 0.02 0.01 0.02 0.03 0.03 0.03 0.03 0.02 0.02 0.02 0.02 0.02 0.02 0.02 0.02 0.02 0.02 0.03 0.04 0.05 0.06
0.01 0.00 0.00 0.00 0.01 0.00 0.00 0.00 0.00 0.00 0.00 0.00 0.00 0.00 0.01 0.01 0.01 0.01 0.02 0.02 0.02 0.02 0.02 0.01 0.01 0.01 0.02 0.03 0.03 0.03 0.02 0.02 0.02 0.02 0.02 0.02 0.02 0.02 0.02 0.02 0.03 0.04 0.05
0.01 0.01 0.01 0.01 0.00 0.00 0.00 0.01 0.01 0.01 0.01 0.00 0.00 0.00 0.01 0.01 0.01 0.01 0.01 0.01 0.01 0.02 0.01 0.01 0.02 0.02 0.02 0.03 0.03 0.04 0.03 0.04 0.03 0.03 0.04 0.04 0.05 0.05 0.04 0.04 0.03 0.04 0.04
0.01 0.01 0.01 0.00 0.00 0.00 0.00 0.00 0.01 0.01 0.01 0.01 0.00 0.00 0.00 0.00 0.01 0.01 0.01 0.01 0.01 0.01 0.00 0.01 0.01 0.02 0.03 0.03 0.03 0.04 0.05 0.04 0.04 0.05 0.04 0.04 0.05 0.05 0.03 0.02 0.02 0.02 0.03
0.00 0.01 0.01 0.01 0.01 0.01 0.00 0.00 0.01 0.01 0.01 0.01 0.00 0.00 0.00 0.00 0.00 0.00 0.01 0.01 0.00 0.00 0.00 0.00 0.00 0.01 0.02 0.02 0.02 0.03 0.04 0.05 0.04 0.04 0.04 0.04 0.04 0.04 0.03 0.03 0.03 0.03 0.03
0.01 0.01 0.01 0.01 0.01 0.01 0.01 0.01 0.00 0.00 0.01 0.01 0.00 0.00 0.00 0.00 0.00 0.00 0.00 0.01 0.00 0.01 0.00 0.00 0.00 0.01 0.01 0.02 0.02 0.03 0.04 0.05 0.05 0.04 0.03 0.03 0.03 0.04 0.04 0.03 0.03 0.03 0.03
MSLP
1011.94 1011.88 1011.97 1012.21 1012.52 1012.84 1013.10 1013.25 1013.27 1013.18 1013.04 1012.91 1012.82 1012.81 1012.88 1012.99 1013.12 1013.24 1013.31 1013.34 1013.34 1013.33 1013.35 1013.41 1013.50 1013.62 1013.75 1013.84 1013.89 1013.88 1013.82 1013.74 1013.66 1013.60 1013.57 1013.57 1013.58 1013.60 1013.60 1013.56 1013.48 1013.37 1013.23
1011.85 1011.87 1012.04 1012.35 1012.71 1013.07 1013.34 1013.48 1013.50 1013.41 1013.28 1013.15 1013.09 1013.11 1013.19 1013.32 1013.45 1013.54 1013.59 1013.58 1013.55 1013.53 1013.56 1013.64 1013.77 1013.94 1014.11 1014.23 1014.29 1014.27 1014.19 1014.08 1013.95 1013.86 1013.81 1013.80 1013.83 1013.87 1013.90 1013.89 1013.83 1013.72 1013.58
1011.76 1011.86 1012.10 1012.46 1012.87 1013.25 1013.54 1013.70 1013.73 1013.66 1013.56 1013.46 1013.44 1013.48 1013.59 1013.72 1013.83 1013.90 1013.90 1013.85 1013.80 1013.76 1013.79 1013.90 1014.07 1014.28 1014.48 1014.62 1014.69 1014.66 1014.55 1014.40 1014.25 1014.12 1014.06 1014.05 1014.09 1014.14 1014.19 1014.20 1014.16 1014.07 1013.93
1011.70 1011.85 1012.15 1012.55 1013.00 1013.41 1013.72 1013.90 1013.96 1013.93 1013.86 1013.81 1013.82 1013.89 1014.01 1014.14 1014.23 1014.27 1014.24 1014.17 1014.09 1014.06 1014.10 1014.22 1014.42 1014.66 1014.87 1015.03 1015.09 1015.04 1014.91 1014.74 1014.56 1014.42 1014.34 1014.33 1014.37 1014.43 1014.48 1014.50 1014.47 1014.39 1014.26
1011.67 1011.87 1012.20 1012.63 1013.09 1013.52 1013.86 1014.06 1014.16 1014.17 1014.14 1014.14 1014.18 1014.28 1014.42 1014.54 1014.63 1014.65 1014.61 1014.53 1014.45 1014.43 1014.48 1014.63 1014.84 1015.08 1015.30 1015.45 1015.49 1015.42 1015.28 1015.09 1014.90 1014.76 1014.68 1014.66 1014.70 1014.75 1014.79 1014.80 1014.76 1014.68 1014.56
1011.69 1011.91 1012.25 1012.69 1013.17 1013.60 1013.95 1014.19 1014.31 1014.36 1014.38 1014.42 1014.50 1014.62 1014.76 1014.89 1014.98 1015.01 1014.98 1014.91 1014.86 1014.86 1014.94 1015.10 1015.32 1015.56 1015.76 1015.87 1015.89 1015.81 1015.65 1015.46 1015.28 1015.14 1015.08 1015.06 1015.09 1015.12 1015.14 1015.11 1015.04 1014.94 1014.82
1011.76 1011.98 1012.32 1012.75 1013.22 1013.65 1014.01 1014.26 1014.41 1014.49 1014.55 1014.62 1014.72 1014.86 1015.02 1015.17 1015.27 1015.32 1015.32 1015.30 1015.30 1015.34 1015.46 1015.63 1015.85 1016.06 1016.22 1016.30 1016.28 1016.18 1016.01 1015.83 1015.68 1015.57 1015.53 1015.52 1015.54 1015.55 1015.52 1015.45 1015.34 1015.20 1015.05
1011.86 1012.08 1012.40 1012.82 1013.26 1013.68 1014.03 1014.29 1014.46 1014.57 1014.65 1014.75 1014.87 1015.03 1015.20 1015.37 1015.50 1015.59 1015.64 1015.68 1015.74 1015.83 1015.98 1016.17 1016.37 1016.55 1016.67 1016.70 1016.65 1016.52 1016.36 1016.21 1016.09 1016.03 1016.02 1016.03 1016.05 1016.03 1015.96 1015.83 1015.66 1015.47 1015.30
1011.98 1012.18 1012.49 1012.87 1013.28 1013.68 1014.02 1014.29 1014.47 1014.60 1014.70 1014.82 1014.96 1015.13 1015.32 1015.50 1015.66 1015.80 1015.91 1016.01 1016.13 1016.28 1016.47 1016.67 1016.86 1017.00 1017.08 1017.06 1016.97 1016.84 1016.69 1016.57 1016.50 1016.49 1016.53 1016.58 1016.60 1016.56 1016.45 1016.27 1016.05 1015.81 1015.60
1012.09 1012.28 1012.56 1012.91 1013.30 1013.67 1014.00 1014.26 1014.45 1014.60 1014.73 1014.87 1015.03 1015.22 1015.42 1015.62 1015.80 1015.97 1016.13 1016.29 1016.46 1016.66 1016.88 1017.09 1017.27 1017.38 1017.42 1017.37 1017.26 1017.12 1017.00 1016.92 1016.91 1016.96 1017.05 1017.14 1017.18 1017.14 1017.01 1016.79 1016.52 1016.25 1016.00
1012.16 1012.35 1012.61 1012.94 1013.29 1013.64 1013.96 1014.22 1014.43 1014.60 1014.76 1014.92 1015.10 1015.30 1015.51 1015.72 1015.93 1016.12 1016.30 1016.50 1016.72 1016.95 1017.18 1017.40 1017.58 1017.68 1017.70 1017.64 1017.53 1017.40 1017.30 1017.27 1017.31 1017.43 1017.58 1017.71 1017.78 1017.76 1017.62 1017.39 1017.09 1016.79 1016.52
1012.18 1012.38 1012.64 1012.95 1013.28 1013.61 1013.92 1014.18 1014.40 1014.61 1014.80 1014.99 1015.20 1015.42 1015.64 1015.85 1016.05 1016.25 1016.44 1016.66 1016.89 1017.14 1017.39 1017.62 1017.80 1017.91 1017.93 1017.88 1017.79 1017.69 1017.63 1017.64 1017.74 1017.90 1018.10 1018.27 1018.38 1018.38 1018.26 1018.03 1017.74 1017.43 1017.15
1012.15 1012.38 1012.65 1012.95 1013.27 1013.58 1013.88 1014.15 1014.39 1014.62 1014.85 1015.08 1015.32 1015.55 1015.78 1015.99 1016.18 1016.37 1016.56 1016.76 1016.99 1017.25 1017.51 1017.76 1017.96 1018.10 1018.15 1018.14 1018.09 1018.03 1018.01 1018.06 1018.19 1018.39 1018.61 1018.82 1018.96 1018.99 1018.90 1018.70 1018.43 1018.13 1017.85
1012.06 1012.33 1012.63 1012.94 1013.26 1013.56 1013.86 1014.13 1014.39 1014.65 1014.91 1015.17 1015.44 1015.69 1015.93 1016.14 1016.32 1016.49 1016.66 1016.84 1017.06 1017.31 1017.58 1017.86 1018.10 1018.28 1018.40 1018.45 1018.45 1018.44 1018.46 1018.54 1018.69 1018.89 1019.12 1019.34 1019.49 1019.55 1019.50 1019.34 1019.10 1018.83 1018.57
1011.92 1012.25 1012.59 1012.92 1013.25 1013.56 1013.85 1014.13 1014.41 1014.68 1014.97 1015.26 1015.55 1015.82 1016.07 1016.28 1016.45 1016.60 1016.75 1016.92 1017.13 1017.38 1017.67 1017.97 1018.26 1018.51 1018.70 1018.82 1018.90 1018.95 1019.00 1019.09 1019.23 1019.41 1019.62 1019.82 1019.97 1020.04 1020.02 1019.91 1019.72 1019.49 1019.25
1011.74 1012.13 1012.52 1012.89 1013.25 1013.57 1013.87 1014.16 1014.45 1014.73 1015.03 1015.34 1015.65 1015.93 1016.19 1016.40 1016.58 1016.72 1016.86 1017.03 1017.23 1017.49 1017.80 1018.14 1018.49 1018.81 1019.08 1019.28 1019.43 1019.53 1019.61 1019.69 1019.80 1019.94 1020.10 1020.26 1020.38 1020.45 1020.45 1020.38 1020.24 1020.06 1019.86
1011.50 1011.97 1012.42 1012.85 1013.24 1013.60 1013.92 1014.22 1014.51 1014.80 1015.10 1015.42 1015.72 1016.02 1016.28 1016.51 1016.70 1016.86 1017.01 1017.19 1017.40 1017.68 1018.02 1018.40 1018.80 1019.18 1019.52 1019.80 1020.01 1020.15 1020.25 1020.32 1020.39 1020.47 1020.56 1020.66 1020.74 1020.79 1020.80 1020.75 1020.66 1020.53 1020.37
1011.22 1011.75 1012.27 1012.76 1013.21 1013.62 1013.98 1014.30 1014.61 1014.90 1015.19 1015.49 1015.79 1016.09 1016.36 1016.61 1016.82 1017.02 1017.21 1017.41 1017.66 1017.96 1018.33 1018.74 1019.18 1019.62 1020.01 1020.35 1020.60 1020.78 1020.88 1020.93 1020.96 1020.98 1020.99 1021.02 1021.05 1021.07 1021.08 1021.06 1021.00 1020.92 1020.80
1010.88 1011.46 1012.05 1012.62 1013.14 1013.62 1014.03 1014.40 1014.72 1015.02 1015.30 1015.58 1015.87 1016.16 1016.45 1016.72 1016.97 1017.21 1017.45 1017.71 1018.00 1018.33 1018.72 1019.15 1019.61 1020.07 1020.50 1020.86 1021.14 1021.34 1021.44 1021.48 1021.47 1021.43 1021.39 1021.36 1021.34 1021.33 1021.33 1021.32 1021.30 1021.25 1021.18
1010.49 1011.11 1011.75 1012.40 1013.01 1013.56 1014.06 1014.48 1014.84 1015.15 1015.43 1015.70 1015.97 1016.25 1016.54 1016.84 1017.14 1017.44 1017.74 1018.06 1018.39 1018.76 1019.16 1019.59 1020.04 1020.50 1020.92 1021.28 1021.57 1021.77 1021.89 1021.92 1021.89 1021.82 1021.74 1021.67 1021.62 1021.59 1021.58 1021.58 1021.58 1021.57 1021.53
1010.06 1010.69 1011.38 1012.09 1012.78 1013.43 1014.02 1014.52 1014.93 1015.27 1015.56 1015.82 1016.07 1016.34 1016.64 1016.97 1017.31 1017.68 1018.05 1018.42 1018.80 1019.19 1019.59 1020.01 1020.42 1020.84 1021.23 1021.57 1021.85 1022.05 1022.18 1022.22 1022.19 1022.13 1022.04 1021.95 1021.89 1021.85 1021.84 1021.85 1021.87 1021.89 1021.88
1009.60 1010.23 1010.93 1011.69 1012.46 1013.21 1013.89 1014.47 1014.96 1015.35 1015.66 1015.92 1016.17 1016.43 1016.74 1017.09 1017.48 1017.89 1018.32 1018.75 1019.17 1019.58 1019.96 1020.34 1020.71 1021.06 1021.39 1021.70 1021.96 1022.16 1022.30 1022.37 1022.38 1022.34 1022.27 1022.20 1022.14 1022.11 1022.10 1022.12 1022.16 1022.19 1022.21
1009.14 1009.73 1010.43 1011.22 1012.05 1012.87 1013.65 1014.33 1014.90 1015.35 1015.70 1015.97 1016.23 1016.49 1016.80 1017.17 1017.59 1018.05 1018.53 1019.01 1019.45 1019.86 1020.23 1020.56 1020.86 1021.14 1021.41 1021.66 1021.90 1022.10 1022.26 1022.37 1022.44 1022.45 1022.43 1022.40 1022.36 1022.34 1022.34 1022.37 1022.41 1022.46 1022.49
1008.68 1009.24 1009.91 1010.70 1011.57 1012.45 1013.31 1014.08 1014.73 1015.25 1015.64 1015.95 1016.22 1016.49 1016.80 1017.18 1017.63 1018.12 1018.64 1019.14 1019.61 1020.02 1020.36 1020.64 1020.88 1021.09 1021.30 1021.50 1021.71 1021.92 1022.11 1022.28 1022.40 1022.48 1022.52 1022.53 1022.53 1022.53 1022.54 1022.56 1022.60 1022.65 1022.68
1008.25 1008.77 1009.40 1010.18 1011.05 1011.97 1012.89 1013.73 1014.46 1015.05 1015.50 1015.84 1016.12 1016.40 1016.72 1017.11 1017.57 1018.08 1018.62 1019.15 1019.63 1020.03 1020.35 1020.60 1020.79 1020.95 1021.10 1021.27 1021.47 1021.68 1021.91 1022.12 1022.31 1022.45 1022.55 1022.61 1022.63 1022.64 1022.65 1022.67 1022.70 1022.73 1022.76
1007.85 1008.33 1008.93 1009.67 1010.54 1011.47 1012.42 1013.32 1014.11 1014.75 1015.25 1015.64 1015.94 1016.24 1016.56 1016.95 1017.41 1017.94 1018.49 1019.03 1019.52 1019.93 1020.24 1020.47 1020.63 1020.76 1020.88 1021.03 1021.23 1021.46 1021.71 1021.97 1022.20 1022.40 1022.54 1022.63 1022.67 1022.69 1022.69 1022.69 1022.70 1022.71 1022.74
Thickness
5767 5767 5763 5764 5764 5764 5765 5765 5765 5766 5766 5766 5767 5767 5768 5768 5769 5769 5769 5770 5770 5771 5771 5772 5772 5773 5773 5773 5773 5772 5772 5772 5772 5772 5772 5772 5772 5772 5772 5772 5772 5774 5773
5766 5765 5761 5762 5762 5762 5762 5762 5763 5763 5764 5764 5764 5765 5765 5765 5766 5766 5767 5767 5767 5768 5768 5769 5769 5770 5770 5770 5770 5770 5770 5770 5769 5770 5770 5770 5769 5769 5769 5769 5770 5771 5770
5764 5763 5760 5759 5759 5760 5760 5760 5760 5761 5761 5762 5762 5762 5762 5763 5763 5763 5764 5764 5764 5765 5765 5765 5766 5766 5767 5767 5767 5767 5766 5766 5766 5767 5768 5770 5768 5766 5766 5766 5766 5767 5767
5761 5760 5759 5756 5756 5757 5757 5758 5758 5758 5758 5759 5759 5759 5759 5760 5760 5760 5760 5761 5761 5761 5762 5762 5762 5762 5763 5763 5763 5763 5763 5762 5763 5764 5767 5767 5766 5764 5764 5764 5764 5764 5764
5758 5757 5755 5753 5754 5754 5754 5755 5755 5755 5755 5756 5756 5757 5757 5757 5757 5757 5757 5757 5757 5758 5758 5758 5758 5758 5759 5759 5759 5759 5759 5759 5760 5762 5763 5763 5762 5760 5760 5760 5761 5761 5761
5754 5754 5752 5750 5751 5751 5751 5751 5752 5753 5753 5752 5752 5753 5753 5753 5753 5754 5754 5754 5754 5754 5754 5754 5754 5754 5755 5755 5755 5755 5755 5755 5757 5758 5758 5759 5758 5756 5756 5757 5757 5758 5758
5751 5751 5749 5747 5748 5748 5748 5748 5749 5750 5750 5749 5748 5748 5749 5749 5749 5749 5750 5749 5750 5750 5750 5750 5750 5750 5751 5751 5751 5750 5750 5751 5753 5754 5754 5754 5753 5752 5753 5753 5754 5754 5755
5748 5748 5746 5744 5744 5744 5744 5744 5745 5745 5746 5745 5745 5744 5744 5745 5745 5745 5745 5745 5745 5745 5745 5745 5746 5746 5746 5747 5746 5746 5747 5747 5749 5750 5750 5749 5748 5748 5748 5749 5749 5750 5751
5745 5745 5745 5745 5743 5742 5741 5741 5741 5741 5741 5741 5741 5741 5740 5740 5740 5740 5741 5741 5741 5741 5740 5741 5741 5742 5742 5742 5742 5742 5742 5743 5746 5746 5746 5745 5744 5744 5744 5745 5745 5746 5747
5743 5743 5743 5743 5742 5742 5740 5738 5737 5737 5738 5739 5739 5737 5737 5737 5737 5736 5737 5737 5737 5737 5736 5736 5737 5737 5737 5738 5738 5738 5739 5740 5743 5743 5742 5741 5740 5740 5740 5741 5741 5742 5743
5738 5740 5740 5740 5739 5739 5738 5736 5735 5735 5735 5738 5737 5734 5735 5736 5736 5735 5733 5732 5733 5732 5732 5732 5732 5733 5734 5734 5734 5734 5736 5738 5738 5738 5736 5735 5735 5736 5737 5736 5737 5737 5738
5733 5735 5736 5736 5736 5736 5735 5735 5734 5735 5734 5735 5735 5733 5733 5733 5732 5731 5728 5729 5729 5729 5729 5729 5729 5730 5732 5733 5732 5732 5734 5734 5734 5733 5731 5730 5730 5731 5732 5732 5732 5732 5733
5731 5731 5732 5732 5732 5732 5732 5732 5731 5732 5731 5731 5731 5730 5729 5729 5729 5728 5728 5728 5727 5727 5728 5727 5729 5730 5730 5729 5729 5730 5730 5730 5730 5728 5726 5724 5725 5726 5727 5727 5727 5727 5728
5728 5727 5728 5728 5729 5729 5729 5728 5728 5728 5728 5727 5726 5726 5726 5726 5726 5725 5725 5724 5724 5724 5724 5725 5724 5726 5726 5727 5726 5726 5725 5725 5724 5723 5720 5719 5720 5721 5721 5721 5722 5722 5723
5725 5724 5725 5725 5725 5725 5725 5724 5724 5723 5724 5724 5721 5722 5722 5722 5722 5721 5721 5719 5720 5720 5721 5720 5721 5722 5722 5722 5721 5721 5721 5720 5719 5718 5716 5714 5714 5715 5715 5716 5717 5717 5717
5723 5722 5722 5722 5721 5721 5722 5721 5720 5719 5717 5718 5717 5717 5717 5717 5717 5716 5716 5715 5715 5715 5716 5717 5717 5716 5716 5715 5715 5715 5715 5715 5714 5714 5713 5712 5710 5710 5710 5711 5711 5711 5712
5721 5721 5719 5718 5718 5718 5717 5716 5715 5714 5714 5713 5712 5712 5712 5712 5712 5712 5712 5711 5710 5710 5711 5711 5712 5711 5710 5710 5709 5709 5709 5709 5710 5709 5709 5708 5708 5705 5705 5705 5705 5706 5707
5719 5718 5716 5715 5714 5714 5713 5711 5710 5709 5708 5707 5706 5706 5707 5707 5707 5706 5706 5706 5705 5705 5705 5705 5705 5704 5704 5704 5704 5704 5704 5703 5704 5704 5705 5704 5703 5702 5701 5699 5699 5700 5701
5716 5715 5713 5712 5711 5710 5708 5706 5705 5704 5703 5702 5702 5701 5701 5702 5702 5701 5700 5701 5701 5700 5700 5700 5699 5699 5698 5697 5698 5698 5698 5698 5698 5699 5700 5699 5698 5697 5697 5695 5694 5695 5695
5713 5712 5711 5709 5707 5706 5704 5703 5700 5699 5698 5697 5696 5696 5696 5696 5696 5696 5696 5696 5696 5695 5694 5694 5693 5692 5692 5692 5694 5693 5693 5693 5693 5693 5693 5693 5693 5693 5693 5692 5692 5691 5690
5709 5708 5707 5705 5704 5702 5699 5697 5695 5693 5693 5692 5692 5692 5691 5691 5691 5691 5691 5691 5690 5689 5688 5689 5688 5687 5686 5688 5687 5686 5688 5689 5689 5687 5687 5688 5688 5687 5687 5688 5687 5687 5687
5705 5704 5703 5701 5699 5697 5695 5694 5692 5690 5690 5689 5687 5686 5686 5686 5685 5686 5685 5685 5684 5682 5682 5683 5682 5681 5681 5682 5681 5680 5680 5681 5681 5683 5682 5682 5683 5682 5683 5683 5683 5682 5682
5702 5700 5699 5697 5695 5693 5691 5690 5688 5686 5685 5683 5682 5682 5681 5681 5680 5680 5680 5679 5678 5678 5677 5677 5676 5675 5675 5676 5677 5675 5673 5673 5674 5676 5676 5677 5676 5676 5677 5678 5678 5678 5678
5699 5698 5696 5694 5693 5690 5688 5686 5684 5681 5680 5679 5679 5678 5677 5676 5675 5675 5674 5674 5673 5673 5672 5672 5672 5671 5669 5669 5670 5669 5670 5670 5668 5668 5670 5671 5671 5671 5672 5672 5672 5672 5672
5697 5695 5693 5691 5689 5687 5685 5682 5680 5679 5678 5677 5676 5674 5673 5672 5671 5670 5669 5669 5668 5668 5667 5667 5667 5666 5666 5665 5664 5663 5663 5662 5664 5663 5662 5663 5665 5665 5666 5666 5666 5666 5666
5694 5691 5688 5686 5684 5683 5681 5680 5678 5675 5673 5672 5671 5670 5668 5668 5666 5666 5665 5664 5664 5663 5662 5662 5661 5661 5661 5660 5659 5659 5657 5656 5656 5657 5657 5657 5658 5659 5660 5660 5660 5660 5660